Regional Weather Roundup
Issued by NWS

Home | Current Version | Previous Version | Graphics & Text | Print | Product List | Glossary On
Versions: 1 2 3 4 5 6 7 8 9 10 11 12 13 14 15 16 17 18 19 20 21 22 23 24 25 26 27 28 29 30 31 32 33 34 35 36 37 38 39 40 41 42 43 44 45 46 47 48 49 50
000
ASUS43 KBIS 290602
RWRND

NORTH DAKOTA REGIONAL WEATHER ROUNDUP
NATIONAL WEATHER SERVICE BISMARCK ND
100 AM CDT FRI APR 29 2016

NOTE: "FAIR" INDICATES FEW OR NO CLOUDS BELOW 12,000 FEET WITH NO
SIGNIFICANT WEATHER AND/OR OBSTRUCTIONS TO VISIBILITY.


NDZ001>003-009>011-017-290700-
NORTHWEST NORTH DAKOTA

CITY           SKY/WX    TMP DP  RH WIND       PRES   REMARKS
WILLISTON      CLOUDY    42  28  57 NE5       30.17R
6HR MIN TEMP:  41; 6HR MAX TEMP:  56;

MINOT          MOCLDY    45  20  36 NE7       30.19R
MINOT AFB      CLOUDY    42  21  43 E8        30.19R
$$

NDZ018>021-031>035-040>046-290700-
SOUTHWEST NORTH DAKOTA

CITY           SKY/WX    TMP DP  RH WIND       PRES   REMARKS
BISMARCK       CLOUDY    44  31  60 NE9       30.16S
6HR MIN TEMP:  44; 6HR MAX TEMP:  54;

DICKINSON      CLOUDY    40  27  59 E6        30.12S
GARRISON         N/A     40  22  48 NE6       30.17S
6HR MIN TEMP:  38; 6HR MAX TEMP:  54;

HETTINGER ARPT CLOUDY    38  35  89 W3        30.14S
$$

NDZ004>008-012>016-024-026-027-054-290700-
NORTHEAST NORTH DAKOTA

CITY           SKY/WX    TMP DP  RH WIND       PRES   REMARKS
GRAND FORKS    PTCLDY    34  27  75 N6        30.17R
GRND FRKS AFB  CLOUDY    37  27  69 N7        30.17S
DEVILS LAKE    CLOUDY    41  23  48 NE7       30.19S
$$

NDZ022-023-025-028>030-036>039-047>053-290700-
SOUTHEAST NORTH DAKOTA

CITY           SKY/WX    TMP DP  RH WIND       PRES   REMARKS
FARGO          CLOUDY    42  28  57 N6        30.13S
6HR MIN TEMP:  42; 6HR MAX TEMP:  59;

JAMESTOWN      CLOUDY    39  28  64 NE8       30.14S
$$





USA.gov is the U.S. government's official web portal to all federal, state and local government web resources and services.